User: anonymous   Login
Location: Vancouver
(49.2500°N, 123.1330°W)
Time: 16:51:19
(UTC-07:00)
Language:

Oscar 11 - Orbit

View from above orbital plane
View from above orbital plane
View from above satellite
View from above satellite

Ground track
Ground track

The orbit data is extracted from the following two-line orbital elements,

1 14781U 84021B   14296.74667290  .00001580  00000-0  20646-3 0  6441
2 14781 097.8365 354.2724 0010058 120.3825 239.8383 14.81826619647002
Epoch (UTC): 23 October 2014 17:55:12
Eccentricity: 0.0010058
inclination: 97.8365°
perigee height: 616 km
apogee height: 630 km
right ascension of ascending node: 354.2724°
argument of perigee: 120.3825°
revolutions per day: 14.81826619
mean anomaly at epoch: 239.8383°
orbit number at epoch: 64700

The dashed part of the orbit path shows where the satellite is in the earth's shadow,  

DLR